Year,Month,Day,Hour,Minute,Value (Times are PST for temperature in C)
2019,03,27,00,00,4.20
2019,03,27,00,01,4.30
2019,03,27,00,02,4.30
2019,03,27,00,03,4.40
2019,03,27,00,04,4.40
2019,03,27,00,05,4.40
2019,03,27,00,06,4.40
2019,03,27,00,07,4.40
2019,03,27,00,08,4.30
2019,03,27,00,09,4.30
2019,03,27,00,10,4.30
2019,03,27,00,11,4.20
2019,03,27,00,12,4.20
2019,03,27,00,13,4.10
2019,03,27,00,14,4.10
2019,03,27,00,15,4.20
2019,03,27,00,16,4.20
2019,03,27,00,17,4.20
2019,03,27,00,18,4.20
2019,03,27,00,19,4.20
2019,03,27,00,20,4.20
2019,03,27,00,21,4.10
2019,03,27,00,22,4.10
2019,03,27,00,23,4.10
2019,03,27,00,24,4.00
2019,03,27,00,25,4.00
2019,03,27,00,26,4.00
2019,03,27,00,27,4.00
2019,03,27,00,28,4.00
2019,03,27,00,29,4.00
2019,03,27,00,30,3.90
2019,03,27,00,31,3.90
2019,03,27,00,32,3.90
2019,03,27,00,33,3.90
2019,03,27,00,34,3.90
2019,03,27,00,35,3.80
2019,03,27,00,36,3.90
2019,03,27,00,37,3.90
2019,03,27,00,38,3.80
2019,03,27,00,39,3.80
2019,03,27,00,40,3.80
2019,03,27,00,41,3.80
2019,03,27,00,42,3.80
2019,03,27,00,43,3.80
2019,03,27,00,44,3.80
2019,03,27,00,45,3.80
2019,03,27,00,46,3.90
2019,03,27,00,47,3.90
2019,03,27,00,48,3.90
2019,03,27,00,49,3.90
2019,03,27,00,50,3.90
2019,03,27,00,51,3.90
2019,03,27,00,52,3.90
2019,03,27,00,53,3.90
2019,03,27,00,54,3.90
2019,03,27,00,55,3.90
2019,03,27,00,56,3.90
2019,03,27,00,57,4.00
2019,03,27,00,58,4.10
2019,03,27,00,59,4.20
2019,03,27,01,00,4.20
2019,03,27,01,01,4.30
2019,03,27,01,02,4.30
2019,03,27,01,03,4.30
2019,03,27,01,04,4.40
2019,03,27,01,05,4.40
2019,03,27,01,06,4.50
2019,03,27,01,07,4.50
2019,03,27,01,08,4.50
2019,03,27,01,09,4.60
2019,03,27,01,10,4.70
2019,03,27,01,11,4.70
2019,03,27,01,12,4.80
2019,03,27,01,13,4.80
2019,03,27,01,14,4.80
2019,03,27,01,15,4.90
2019,03,27,01,16,4.90
2019,03,27,01,17,4.90
2019,03,27,01,18,4.90
2019,03,27,01,19,5.00
2019,03,27,01,20,5.10
2019,03,27,01,21,5.10
2019,03,27,01,22,5.10
2019,03,27,01,23,5.10
2019,03,27,01,24,5.10
2019,03,27,01,25,5.20
2019,03,27,01,26,5.20
2019,03,27,01,27,5.20
2019,03,27,01,28,5.30
2019,03,27,01,29,5.40
2019,03,27,01,30,5.40
2019,03,27,01,31,5.50
2019,03,27,01,32,5.50
2019,03,27,01,33,5.60
2019,03,27,01,34,5.60
2019,03,27,01,35,5.60
2019,03,27,01,36,5.60
2019,03,27,01,37,5.60
2019,03,27,01,38,5.60
2019,03,27,01,39,5.60
2019,03,27,01,40,5.60
2019,03,27,01,41,5.60
2019,03,27,01,42,5.60
2019,03,27,01,43,5.60
2019,03,27,01,44,5.60
2019,03,27,01,45,5.60
2019,03,27,01,46,5.70
2019,03,27,01,47,5.70
2019,03,27,01,48,5.70
2019,03,27,01,49,5.70
2019,03,27,01,50,5.70
2019,03,27,01,51,5.70
2019,03,27,01,52,5.70
2019,03,27,01,53,5.70
2019,03,27,01,54,5.60
2019,03,27,01,55,5.60
2019,03,27,01,56,5.50
2019,03,27,01,57,5.40
2019,03,27,01,58,5.30
2019,03,27,01,59,5.30
2019,03,27,02,00,5.20
2019,03,27,02,01,5.10
2019,03,27,02,02,5.00
2019,03,27,02,03,5.00
2019,03,27,02,04,4.90
2019,03,27,02,05,4.90
2019,03,27,02,06,4.80
2019,03,27,02,07,4.80
2019,03,27,02,08,4.80
2019,03,27,02,09,4.80
2019,03,27,02,10,4.70
2019,03,27,02,11,4.70
2019,03,27,02,12,4.70
2019,03,27,02,13,4.70
2019,03,27,02,14,4.70
2019,03,27,02,15,4.70
2019,03,27,02,16,4.70
2019,03,27,02,17,4.70
2019,03,27,02,18,4.70
2019,03,27,02,19,4.70
2019,03,27,02,20,4.70
2019,03,27,02,21,4.70
2019,03,27,02,22,4.80
2019,03,27,02,23,4.80
2019,03,27,02,24,4.80
2019,03,27,02,25,4.80
2019,03,27,02,26,4.80
2019,03,27,02,27,4.80
2019,03,27,02,28,4.80
2019,03,27,02,29,4.80
2019,03,27,02,30,4.80
2019,03,27,02,31,4.80
2019,03,27,02,32,4.80
2019,03,27,02,33,4.80
2019,03,27,02,34,4.80
2019,03,27,02,35,4.80
2019,03,27,02,36,4.90
2019,03,27,02,37,4.90
2019,03,27,02,38,4.90
2019,03,27,02,39,4.90
2019,03,27,02,40,4.90
2019,03,27,02,41,4.90
2019,03,27,02,42,4.90
2019,03,27,02,43,4.90
2019,03,27,02,44,4.80
2019,03,27,02,45,4.80
2019,03,27,02,46,4.70
2019,03,27,02,47,4.70
2019,03,27,02,48,4.60
2019,03,27,02,49,4.60
2019,03,27,02,50,4.60
2019,03,27,02,51,4.50
2019,03,27,02,52,4.50
2019,03,27,02,53,4.50
2019,03,27,02,54,4.50
2019,03,27,02,55,4.40
2019,03,27,02,56,4.40
2019,03,27,02,57,4.40
2019,03,27,02,58,4.40
2019,03,27,02,59,4.40
2019,03,27,03,00,4.50
2019,03,27,03,01,4.50
2019,03,27,03,02,4.50
2019,03,27,03,03,4.50
2019,03,27,03,04,4.50
2019,03,27,03,05,4.50
2019,03,27,03,06,4.50
2019,03,27,03,07,4.40
2019,03,27,03,08,4.40
2019,03,27,03,09,4.40
2019,03,27,03,10,4.40
2019,03,27,03,11,4.50
2019,03,27,03,12,4.50
2019,03,27,03,13,4.60
2019,03,27,03,14,4.60
2019,03,27,03,15,4.60
2019,03,27,03,16,4.60
2019,03,27,03,17,4.60
2019,03,27,03,18,4.70
2019,03,27,03,19,4.70
2019,03,27,03,20,4.80
2019,03,27,03,21,4.80
2019,03,27,03,22,4.80
2019,03,27,03,23,4.80
2019,03,27,03,24,4.80
2019,03,27,03,25,4.80
2019,03,27,03,26,4.80
2019,03,27,03,27,4.80
2019,03,27,03,28,4.80
2019,03,27,03,29,4.80
2019,03,27,03,30,4.80
2019,03,27,03,31,4.90
2019,03,27,03,32,4.90
2019,03,27,03,33,4.90
2019,03,27,03,34,5.00
2019,03,27,03,35,5.00
2019,03,27,03,36,5.10
2019,03,27,03,37,5.10
2019,03,27,03,38,5.10
2019,03,27,03,39,5.00
2019,03,27,03,40,5.00
2019,03,27,03,41,5.00
2019,03,27,03,42,5.00
2019,03,27,03,43,4.90
2019,03,27,03,44,4.90
2019,03,27,03,45,4.90
2019,03,27,03,46,4.90
2019,03,27,03,47,4.90
2019,03,27,03,48,4.90
2019,03,27,03,49,4.90
2019,03,27,03,50,4.90
2019,03,27,03,51,4.90
2019,03,27,03,52,4.90
2019,03,27,03,53,4.90
2019,03,27,03,54,4.90
2019,03,27,03,55,4.90
2019,03,27,03,56,4.90
2019,03,27,03,57,4.90
2019,03,27,03,58,4.90
2019,03,27,03,59,4.80
2019,03,27,04,00,4.80
2019,03,27,04,01,4.80
2019,03,27,04,02,4.80
2019,03,27,04,03,4.80
2019,03,27,04,04,4.90
2019,03,27,04,05,4.90
2019,03,27,04,06,4.90
2019,03,27,04,07,4.90
2019,03,27,04,08,4.90
2019,03,27,04,09,4.90
2019,03,27,04,10,4.90
2019,03,27,04,11,4.90
2019,03,27,04,12,4.90
2019,03,27,04,13,4.90
2019,03,27,04,14,4.90
2019,03,27,04,15,4.90
2019,03,27,04,16,5.00
2019,03,27,04,17,5.00
2019,03,27,04,18,5.00
2019,03,27,04,19,5.10
2019,03,27,04,20,5.10
2019,03,27,04,21,5.10
2019,03,27,04,22,5.10
2019,03,27,04,23,5.10
2019,03,27,04,24,5.10
2019,03,27,04,25,5.10
2019,03,27,04,26,5.10
2019,03,27,04,27,5.10
2019,03,27,04,28,5.10
2019,03,27,04,29,5.10
2019,03,27,04,30,5.10
2019,03,27,04,31,5.10
2019,03,27,04,32,5.10
2019,03,27,04,33,5.10
2019,03,27,04,34,5.10
2019,03,27,04,35,5.10
2019,03,27,04,36,5.10
2019,03,27,04,37,5.10
2019,03,27,04,38,5.10
2019,03,27,04,39,5.10
2019,03,27,04,40,5.10
2019,03,27,04,41,5.10
2019,03,27,04,42,5.10
2019,03,27,04,43,5.10
2019,03,27,04,44,5.10
2019,03,27,04,45,5.10
2019,03,27,04,46,5.00
2019,03,27,04,47,5.00
2019,03,27,04,48,5.00
2019,03,27,04,49,5.00
2019,03,27,04,50,5.00
2019,03,27,04,51,5.00
2019,03,27,04,52,4.90
2019,03,27,04,53,4.90
2019,03,27,04,54,4.90
2019,03,27,04,55,4.90
2019,03,27,04,56,4.90
2019,03,27,04,57,4.90
2019,03,27,04,58,5.00
2019,03,27,04,59,5.00
2019,03,27,05,00,5.00
2019,03,27,05,01,5.00
2019,03,27,05,02,5.00
2019,03,27,05,03,5.00
2019,03,27,05,04,4.90
2019,03,27,05,05,4.90
2019,03,27,05,06,4.90
2019,03,27,05,07,4.90
2019,03,27,05,08,4.90
2019,03,27,05,09,4.90
2019,03,27,05,10,4.90
2019,03,27,05,11,4.90
2019,03,27,05,12,4.90
2019,03,27,05,13,4.90
2019,03,27,05,14,4.90
2019,03,27,05,15,4.90
2019,03,27,05,16,4.90
2019,03,27,05,17,4.90
2019,03,27,05,18,4.90
2019,03,27,05,19,4.90
2019,03,27,05,20,4.90
2019,03,27,05,21,4.90
2019,03,27,05,22,4.90
2019,03,27,05,23,4.90
2019,03,27,05,24,4.80
2019,03,27,05,25,4.80
2019,03,27,05,26,4.80
2019,03,27,05,27,4.80
2019,03,27,05,28,4.80
2019,03,27,05,29,4.80
2019,03,27,05,30,4.80
2019,03,27,05,31,4.80
2019,03,27,05,32,4.70
2019,03,27,05,33,4.70
2019,03,27,05,34,4.70
2019,03,27,05,35,4.70
2019,03,27,05,36,4.70
2019,03,27,05,37,4.70
2019,03,27,05,38,4.60
2019,03,27,05,39,4.70
2019,03,27,05,40,4.70
2019,03,27,05,41,4.70
2019,03,27,05,42,4.60
2019,03,27,05,43,4.60
2019,03,27,05,44,4.60
2019,03,27,05,45,4.60
2019,03,27,05,46,4.60
2019,03,27,05,47,4.60
2019,03,27,05,48,4.60
2019,03,27,05,49,4.60
2019,03,27,05,50,4.60
2019,03,27,05,51,4.60
2019,03,27,05,52,4.60
2019,03,27,05,53,4.60
2019,03,27,05,54,4.60
2019,03,27,05,55,4.60
2019,03,27,05,56,4.60
2019,03,27,05,57,4.60
2019,03,27,05,58,4.60
2019,03,27,05,59,4.60
2019,03,27,06,00,4.50
2019,03,27,06,01,4.50
2019,03,27,06,02,4.50
2019,03,27,06,03,4.50
2019,03,27,06,04,4.50
2019,03,27,06,05,4.50
2019,03,27,06,06,4.50
2019,03,27,06,07,4.50
2019,03,27,06,08,4.50
2019,03,27,06,09,4.50
2019,03,27,06,10,4.50
2019,03,27,06,11,4.50
2019,03,27,06,12,4.50
2019,03,27,06,13,4.50
2019,03,27,06,14,4.50
2019,03,27,06,15,4.50
2019,03,27,06,16,4.40
2019,03,27,06,17,4.40
2019,03,27,06,18,4.40
2019,03,27,06,19,4.50
2019,03,27,06,20,4.50
2019,03,27,06,21,4.50
2019,03,27,06,22,4.50
2019,03,27,06,23,4.50
2019,03,27,06,24,4.50
2019,03,27,06,25,4.50
2019,03,27,06,26,4.50
2019,03,27,06,27,4.50
2019,03,27,06,28,4.50
2019,03,27,06,29,4.50
2019,03,27,06,30,4.50
2019,03,27,06,31,4.50
2019,03,27,06,32,4.50
2019,03,27,06,33,4.50
2019,03,27,06,34,4.40
2019,03,27,06,35,4.40
2019,03,27,06,36,4.40
2019,03,27,06,37,4.40
2019,03,27,06,38,4.30
2019,03,27,06,39,4.30
2019,03,27,06,40,4.30
2019,03,27,06,41,4.30
2019,03,27,06,42,4.20
2019,03,27,06,43,4.20
2019,03,27,06,44,4.20
2019,03,27,06,45,4.20
2019,03,27,06,46,4.20
2019,03,27,06,47,4.20
2019,03,27,06,48,4.20
2019,03,27,06,49,4.20
2019,03,27,06,50,4.10
2019,03,27,06,51,4.10
2019,03,27,06,52,4.10
2019,03,27,06,53,4.10
2019,03,27,06,54,4.10
2019,03,27,06,55,4.10
2019,03,27,06,56,4.10
2019,03,27,06,57,4.10
2019,03,27,06,58,4.00
2019,03,27,06,59,4.00
2019,03,27,07,00,3.90
2019,03,27,07,01,3.90
2019,03,27,07,02,3.90
2019,03,27,07,03,3.90
2019,03,27,07,04,3.90
2019,03,27,07,05,3.90
2019,03,27,07,06,3.90
2019,03,27,07,07,3.90
2019,03,27,07,08,3.90
2019,03,27,07,09,3.90
2019,03,27,07,10,3.90
2019,03,27,07,11,3.80
2019,03,27,07,12,3.80
2019,03,27,07,13,3.80
2019,03,27,07,14,3.70
2019,03,27,07,15,3.70
2019,03,27,07,16,3.60
2019,03,27,07,17,3.60
2019,03,27,07,18,3.60
2019,03,27,07,19,3.60
2019,03,27,07,20,3.50
2019,03,27,07,21,3.50
2019,03,27,07,22,3.40
2019,03,27,07,23,3.40
2019,03,27,07,24,3.40
2019,03,27,07,25,3.40
2019,03,27,07,26,3.40
2019,03,27,07,27,3.50
2019,03,27,07,28,3.50
2019,03,27,07,29,3.50
2019,03,27,07,30,3.50
2019,03,27,07,31,3.60
2019,03,27,07,32,3.50
2019,03,27,07,33,3.50
2019,03,27,07,34,3.50
2019,03,27,07,35,3.60
2019,03,27,07,36,3.60
2019,03,27,07,37,3.70
2019,03,27,07,38,3.70
2019,03,27,07,39,3.70
2019,03,27,07,40,3.70
2019,03,27,07,41,3.70
2019,03,27,07,42,3.70
2019,03,27,07,43,3.70
2019,03,27,07,44,3.70
2019,03,27,07,45,3.70
2019,03,27,07,46,3.60
2019,03,27,07,47,3.70
2019,03,27,07,48,3.70
2019,03,27,07,49,3.70
2019,03,27,07,50,3.70
2019,03,27,07,51,3.80
2019,03,27,07,52,3.80
2019,03,27,07,53,3.70
2019,03,27,07,54,3.70
2019,03,27,07,55,3.70
2019,03,27,07,56,3.80
2019,03,27,07,57,3.80
2019,03,27,07,58,3.90
2019,03,27,07,59,3.90
2019,03,27,08,00,3.80
2019,03,27,08,01,3.90
2019,03,27,08,02,4.00
2019,03,27,08,03,4.00
2019,03,27,08,04,4.10
2019,03,27,08,05,4.10
2019,03,27,08,06,4.20
2019,03,27,08,07,4.20
2019,03,27,08,08,4.30
2019,03,27,08,09,4.30
2019,03,27,08,10,4.40
2019,03,27,08,11,4.50
2019,03,27,08,12,4.50
2019,03,27,08,13,4.60
2019,03,27,08,14,4.70
2019,03,27,08,15,4.70
2019,03,27,08,16,4.80
2019,03,27,08,17,4.80
2019,03,27,08,18,4.90
2019,03,27,08,19,5.00
2019,03,27,08,20,5.00
2019,03,27,08,21,5.00
2019,03,27,08,22,5.10
2019,03,27,08,23,5.10
2019,03,27,08,24,5.20
2019,03,27,08,25,5.20
2019,03,27,08,26,5.20
2019,03,27,08,27,5.20
2019,03,27,08,28,5.20
2019,03,27,08,29,5.20
2019,03,27,08,30,5.20
2019,03,27,08,31,5.20
2019,03,27,08,32,5.30
2019,03,27,08,33,5.40
2019,03,27,08,34,5.50
2019,03,27,08,35,5.60
2019,03,27,08,36,5.80
2019,03,27,08,37,5.90
2019,03,27,08,38,6.00
2019,03,27,08,39,6.10
2019,03,27,08,40,6.20
2019,03,27,08,41,6.30
2019,03,27,08,42,6.40
2019,03,27,08,43,6.50
2019,03,27,08,44,6.60
2019,03,27,08,45,6.60
2019,03,27,08,46,6.60
2019,03,27,08,47,6.60
2019,03,27,08,48,6.60
2019,03,27,08,49,6.60
2019,03,27,08,50,6.60
2019,03,27,08,51,6.60
2019,03,27,08,52,6.90
2019,03,27,08,53,6.90
2019,03,27,08,54,7.00
2019,03,27,08,55,7.00
2019,03,27,08,56,7.10
2019,03,27,08,57,7.10
2019,03,27,08,58,7.20
2019,03,27,08,59,7.20
2019,03,27,09,00,7.30
2019,03,27,09,01,7.30
2019,03,27,09,02,7.40
2019,03,27,09,03,7.40
2019,03,27,09,04,7.40
2019,03,27,09,05,7.40
2019,03,27,09,06,7.40
2019,03,27,09,07,7.40
2019,03,27,09,08,7.40
2019,03,27,09,09,7.50
2019,03,27,09,10,7.50
2019,03,27,09,11,7.50
2019,03,27,09,12,7.40
2019,03,27,09,13,7.30
2019,03,27,09,14,7.20
2019,03,27,09,15,7.20
2019,03,27,09,16,7.20
2019,03,27,09,17,7.20
2019,03,27,09,18,7.20
2019,03,27,09,19,7.20
2019,03,27,09,20,7.20
2019,03,27,09,21,7.20
2019,03,27,09,22,7.20
2019,03,27,09,23,7.20
2019,03,27,09,24,7.10
2019,03,27,09,25,7.00
2019,03,27,09,26,7.00
2019,03,27,09,27,7.00
2019,03,27,09,28,7.00
2019,03,27,09,29,7.10
2019,03,27,09,30,7.20
2019,03,27,09,31,7.20
2019,03,27,09,32,7.20
2019,03,27,09,33,7.30
2019,03,27,09,34,7.40
2019,03,27,09,35,7.40
2019,03,27,09,36,7.50
2019,03,27,09,37,7.50
2019,03,27,09,38,7.50
2019,03,27,09,39,7.50
2019,03,27,09,40,7.50
2019,03,27,09,41,7.40
2019,03,27,09,42,7.40
2019,03,27,09,43,7.40
2019,03,27,09,44,7.40
2019,03,27,09,45,7.40
2019,03,27,09,46,7.30
2019,03,27,09,47,7.30
2019,03,27,09,48,7.20
2019,03,27,09,49,7.20
2019,03,27,09,50,7.20
2019,03,27,09,51,7.20
2019,03,27,09,52,7.30
2019,03,27,09,53,7.30
2019,03,27,09,54,7.40
2019,03,27,09,55,7.40
2019,03,27,09,56,7.50
2019,03,27,09,57,7.50
2019,03,27,09,58,7.60
2019,03,27,09,59,7.70
2019,03,27,10,00,7.70
2019,03,27,10,01,7.80
2019,03,27,10,02,7.80
2019,03,27,10,03,7.90
2019,03,27,10,04,7.90
2019,03,27,10,05,7.90
2019,03,27,10,06,8.00
2019,03,27,10,07,8.00
2019,03,27,10,08,8.20
2019,03,27,10,09,8.20
2019,03,27,10,10,8.30
2019,03,27,10,11,8.30
2019,03,27,10,12,8.40
2019,03,27,10,13,8.40
2019,03,27,10,14,8.50
2019,03,27,10,15,8.50
2019,03,27,10,16,8.60
2019,03,27,10,17,8.80
2019,03,27,10,18,8.90
2019,03,27,10,19,9.00
2019,03,27,10,20,9.10
2019,03,27,10,21,9.10
2019,03,27,10,22,9.20
2019,03,27,10,23,9.10
2019,03,27,10,24,9.00
2019,03,27,10,25,9.00
2019,03,27,10,26,9.00
2019,03,27,10,27,8.90
2019,03,27,10,28,8.90
2019,03,27,10,29,9.00
2019,03,27,10,30,9.00
2019,03,27,10,31,9.10
2019,03,27,10,32,9.20
2019,03,27,10,33,9.20
2019,03,27,10,34,9.20
2019,03,27,10,35,9.30
2019,03,27,10,36,9.30
2019,03,27,10,37,9.40
2019,03,27,10,38,9.40
2019,03,27,10,39,9.40
2019,03,27,10,40,9.50
2019,03,27,10,41,9.40
2019,03,27,10,42,9.50
2019,03,27,10,43,9.50
2019,03,27,10,44,9.50
2019,03,27,10,45,9.50
2019,03,27,10,46,9.60
2019,03,27,10,47,9.60
2019,03,27,10,48,9.60
2019,03,27,10,49,9.60
2019,03,27,10,50,9.70
2019,03,27,10,51,9.60
2019,03,27,10,52,9.60
2019,03,27,10,53,9.50
2019,03,27,10,54,9.50
2019,03,27,10,55,9.50
2019,03,27,10,56,9.40
2019,03,27,10,57,9.50
2019,03,27,10,58,9.50
2019,03,27,10,59,9.60
2019,03,27,11,00,9.60
2019,03,27,11,01,9.50
2019,03,27,11,02,9.50
2019,03,27,11,03,9.50
2019,03,27,11,04,9.50
2019,03,27,11,05,9.40
2019,03,27,11,06,9.50
2019,03,27,11,07,9.60
2019,03,27,11,08,9.60
2019,03,27,11,09,9.70
2019,03,27,11,10,9.80
2019,03,27,11,11,9.90
2019,03,27,11,12,10.00
2019,03,27,11,13,10.10
2019,03,27,11,14,10.10
2019,03,27,11,15,10.00
2019,03,27,11,16,10.00
2019,03,27,11,17,10.00
2019,03,27,11,18,10.10
2019,03,27,11,19,10.10
2019,03,27,11,20,10.20
2019,03,27,11,21,10.10
2019,03,27,11,22,10.00
2019,03,27,11,23,9.90
2019,03,27,11,24,9.90
2019,03,27,11,25,9.90
2019,03,27,11,26,10.00
2019,03,27,11,27,10.00
2019,03,27,11,28,10.10
2019,03,27,11,29,10.20
2019,03,27,11,30,10.30
2019,03,27,11,31,10.30
2019,03,27,11,32,10.30
2019,03,27,11,33,10.30
2019,03,27,11,34,10.30
2019,03,27,11,35,10.30
2019,03,27,11,36,10.30
2019,03,27,11,37,10.40
2019,03,27,11,38,10.40
2019,03,27,11,39,10.40
2019,03,27,11,40,10.40
2019,03,27,11,41,10.50
2019,03,27,11,42,10.60
2019,03,27,11,43,10.70
2019,03,27,11,44,10.80
2019,03,27,11,45,10.90
2019,03,27,11,46,11.10
2019,03,27,11,47,11.10
2019,03,27,11,48,11.10
2019,03,27,11,49,11.20
2019,03,27,11,50,11.20
2019,03,27,11,51,11.20
2019,03,27,11,52,11.20
2019,03,27,11,53,11.10
2019,03,27,11,54,11.00
2019,03,27,11,55,11.00
2019,03,27,11,56,10.90
2019,03,27,11,57,10.90
2019,03,27,11,58,10.90
2019,03,27,11,59,11.00
2019,03,27,12,00,11.00
2019,03,27,12,01,11.00
2019,03,27,12,02,11.00
2019,03,27,12,03,11.10
2019,03,27,12,04,11.10
2019,03,27,12,05,11.10
2019,03,27,12,06,11.10
2019,03,27,12,07,11.10
2019,03,27,12,08,11.10
2019,03,27,12,09,11.20
2019,03,27,12,10,11.30
2019,03,27,12,11,11.30
2019,03,27,12,12,11.40
2019,03,27,12,13,11.50
2019,03,27,12,14,11.60
2019,03,27,12,15,11.60
2019,03,27,12,16,11.60
2019,03,27,12,17,11.60
2019,03,27,12,18,11.60
2019,03,27,12,19,11.70
2019,03,27,12,20,11.80
2019,03,27,12,21,11.90
2019,03,27,12,22,12.00
2019,03,27,12,23,12.10
2019,03,27,12,24,12.10
2019,03,27,12,25,12.20
2019,03,27,12,26,12.20
2019,03,27,12,27,12.20
2019,03,27,12,28,12.30
2019,03,27,12,29,12.30
2019,03,27,12,30,12.20
2019,03,27,12,31,12.10
2019,03,27,12,32,12.10
2019,03,27,12,33,12.10
2019,03,27,12,34,12.10
2019,03,27,12,35,12.10
2019,03,27,12,36,12.10
2019,03,27,12,37,12.20
2019,03,27,12,38,12.20
2019,03,27,12,39,12.30
2019,03,27,12,40,12.40
2019,03,27,12,41,12.50
2019,03,27,12,42,12.50
2019,03,27,12,43,12.60
2019,03,27,12,44,12.60
2019,03,27,12,45,12.60
2019,03,27,12,46,12.50
2019,03,27,12,47,12.40
2019,03,27,12,48,12.40
2019,03,27,12,49,12.30
2019,03,27,12,50,12.30
2019,03,27,12,51,12.30
2019,03,27,12,52,12.30
2019,03,27,12,53,12.30
2019,03,27,12,54,12.40
2019,03,27,12,55,12.50
2019,03,27,12,56,12.60
2019,03,27,12,57,12.70
2019,03,27,12,58,12.70
2019,03,27,12,59,12.80
2019,03,27,13,00,12.90
2019,03,27,13,01,12.90
2019,03,27,13,02,12.90
2019,03,27,13,03,12.90
2019,03,27,13,04,12.90
2019,03,27,13,05,12.90
2019,03,27,13,06,12.90
2019,03,27,13,07,12.90
2019,03,27,13,08,12.90
2019,03,27,13,09,12.90
2019,03,27,13,10,13.00
2019,03,27,13,11,13.10
2019,03,27,13,12,13.10
2019,03,27,13,13,13.20
2019,03,27,13,14,13.30
2019,03,27,13,15,13.40
2019,03,27,13,16,13.40
2019,03,27,13,17,13.40
2019,03,27,13,18,13.40
2019,03,27,13,19,13.30
2019,03,27,13,20,13.20
2019,03,27,13,21,13.20
2019,03,27,13,22,13.20
2019,03,27,13,23,13.20
2019,03,27,13,24,13.30
2019,03,27,13,25,13.30
2019,03,27,13,26,13.30
2019,03,27,13,27,13.40
2019,03,27,13,28,13.50
2019,03,27,13,29,13.70
2019,03,27,13,30,13.80
2019,03,27,13,31,13.80
2019,03,27,13,32,13.90
2019,03,27,13,33,13.90
2019,03,27,13,34,13.90
2019,03,27,13,35,13.90
2019,03,27,13,36,13.90
2019,03,27,13,37,13.90
2019,03,27,13,38,13.90
2019,03,27,13,39,13.90
2019,03,27,13,40,13.80
2019,03,27,13,41,13.70
2019,03,27,13,42,13.70
2019,03,27,13,43,13.70
2019,03,27,13,44,13.60
2019,03,27,13,45,13.50
2019,03,27,13,46,13.50
2019,03,27,13,47,13.40
2019,03,27,13,48,13.30
2019,03,27,13,49,13.30
2019,03,27,13,50,13.40
2019,03,27,13,51,13.40
2019,03,27,13,52,13.50
2019,03,27,13,53,13.60
2019,03,27,13,54,13.70
2019,03,27,13,55,13.90
2019,03,27,13,56,14.00
2019,03,27,13,57,14.10
2019,03,27,13,58,14.20
2019,03,27,13,59,14.20
2019,03,27,14,00,14.20
2019,03,27,14,01,14.20
2019,03,27,14,02,14.20
2019,03,27,14,03,14.10
2019,03,27,14,04,14.10
2019,03,27,14,05,14.20
2019,03,27,14,06,14.10
2019,03,27,14,07,14.10
2019,03,27,14,08,14.20
2019,03,27,14,09,14.30
2019,03,27,14,10,14.30
2019,03,27,14,11,14.40
2019,03,27,14,12,14.50
2019,03,27,14,13,14.50
2019,03,27,14,14,14.50
2019,03,27,14,15,14.40
2019,03,27,14,16,14.40
2019,03,27,14,17,14.40
2019,03,27,14,18,14.40
2019,03,27,14,19,14.50
2019,03,27,14,20,14.50
2019,03,27,14,21,14.50
2019,03,27,14,22,14.60
2019,03,27,14,23,14.70
2019,03,27,14,24,14.70
2019,03,27,14,25,14.70
2019,03,27,14,26,14.70
2019,03,27,14,27,14.70
2019,03,27,14,28,14.70
2019,03,27,14,29,14.70
2019,03,27,14,30,14.70
2019,03,27,14,31,14.70
2019,03,27,14,32,14.60
2019,03,27,14,33,14.60
2019,03,27,14,34,14.50
2019,03,27,14,35,14.50
2019,03,27,14,36,14.50
2019,03,27,14,37,14.60
2019,03,27,14,38,14.70
2019,03,27,14,39,14.80
2019,03,27,14,40,14.80
2019,03,27,14,41,14.90
2019,03,27,14,42,14.90
2019,03,27,14,43,14.80
2019,03,27,14,44,14.80
2019,03,27,14,45,14.90
2019,03,27,14,46,14.90
2019,03,27,14,47,14.90
2019,03,27,14,48,14.90
2019,03,27,14,49,14.80
2019,03,27,14,50,14.80
2019,03,27,14,51,14.80
2019,03,27,14,52,14.90
2019,03,27,14,53,14.90
2019,03,27,14,54,15.00
2019,03,27,14,55,15.10
2019,03,27,14,56,15.10
2019,03,27,14,57,15.20
2019,03,27,14,58,15.20
2019,03,27,14,59,15.30
2019,03,27,15,00,15.40
2019,03,27,15,01,15.50
2019,03,27,15,02,15.50
2019,03,27,15,03,15.60
2019,03,27,15,04,15.50
2019,03,27,15,05,15.50
2019,03,27,15,06,15.40
2019,03,27,15,07,15.50
2019,03,27,15,08,15.50
2019,03,27,15,09,15.60
2019,03,27,15,10,15.60
2019,03,27,15,11,15.60
2019,03,27,15,12,15.60
2019,03,27,15,13,15.60
2019,03,27,15,14,15.60
2019,03,27,15,15,15.60
2019,03,27,15,16,15.60
2019,03,27,15,17,15.60
2019,03,27,15,18,15.50
2019,03,27,15,19,15.50
2019,03,27,15,20,15.40
2019,03,27,15,21,15.40
2019,03,27,15,22,15.60
2019,03,27,15,23,15.60
2019,03,27,15,24,15.80
2019,03,27,15,25,15.80
2019,03,27,15,26,15.90
2019,03,27,15,27,16.00
2019,03,27,15,28,16.00
2019,03,27,15,29,16.00
2019,03,27,15,30,15.80
2019,03,27,15,31,15.80
2019,03,27,15,32,15.60
2019,03,27,15,33,15.40
2019,03,27,15,34,15.30
2019,03,27,15,35,15.20
2019,03,27,15,36,15.20
2019,03,27,15,37,15.20
2019,03,27,15,38,15.10
2019,03,27,15,39,15.20
2019,03,27,15,40,15.20
2019,03,27,15,41,15.20
2019,03,27,15,42,15.20
2019,03,27,15,43,15.30
2019,03,27,15,44,15.30
2019,03,27,15,45,15.40
2019,03,27,15,46,15.60
2019,03,27,15,47,15.70
2019,03,27,15,48,15.70
2019,03,27,15,49,15.80
2019,03,27,15,50,15.80
2019,03,27,15,51,15.90
2019,03,27,15,52,15.90
2019,03,27,15,53,15.90
2019,03,27,15,54,15.90
2019,03,27,15,55,16.00
2019,03,27,15,56,16.00
2019,03,27,15,57,16.00
2019,03,27,15,58,16.00
2019,03,27,15,59,16.00
2019,03,27,16,00,15.90
2019,03,27,16,01,15.80
2019,03,27,16,02,15.80
2019,03,27,16,03,15.80
2019,03,27,16,04,15.80
2019,03,27,16,05,15.80
2019,03,27,16,06,15.80
2019,03,27,16,07,15.90
2019,03,27,16,08,15.90
2019,03,27,16,09,16.00
2019,03,27,16,10,16.00
2019,03,27,16,11,16.00
2019,03,27,16,12,16.00
2019,03,27,16,13,16.00
2019,03,27,16,14,16.00
2019,03,27,16,15,15.90
2019,03,27,16,16,15.90
2019,03,27,16,17,16.00
2019,03,27,16,18,16.00
2019,03,27,16,19,16.00
2019,03,27,16,20,16.00
2019,03,27,16,21,16.00
2019,03,27,16,22,16.00
2019,03,27,16,23,15.90
2019,03,27,16,24,15.90
2019,03,27,16,25,15.90
2019,03,27,16,26,15.90
2019,03,27,16,27,15.90
2019,03,27,16,28,15.90
2019,03,27,16,29,15.90
2019,03,27,16,30,15.90
2019,03,27,16,31,15.90
2019,03,27,16,32,15.80
2019,03,27,16,33,15.80
2019,03,27,16,34,15.80
2019,03,27,16,35,15.90
2019,03,27,16,36,15.90
2019,03,27,16,37,15.90
2019,03,27,16,38,15.90
2019,03,27,16,39,15.90
2019,03,27,16,40,15.90
2019,03,27,16,41,15.90
2019,03,27,16,42,15.90
2019,03,27,16,43,15.80
2019,03,27,16,44,15.80
2019,03,27,16,45,15.80
2019,03,27,16,46,15.80
2019,03,27,16,47,15.80
2019,03,27,16,48,15.80
2019,03,27,16,49,15.80
2019,03,27,16,50,15.80
2019,03,27,16,51,15.80
2019,03,27,16,52,15.80
2019,03,27,16,53,15.90
2019,03,27,16,54,15.90
2019,03,27,16,55,16.00
2019,03,27,16,56,16.00
2019,03,27,16,57,16.00
2019,03,27,16,58,16.00
2019,03,27,16,59,16.00
2019,03,27,17,00,16.10
2019,03,27,17,01,16.00
2019,03,27,17,02,16.00
2019,03,27,17,03,16.00
2019,03,27,17,04,15.90
2019,03,27,17,05,15.90
2019,03,27,17,06,15.90
2019,03,27,17,07,15.90
2019,03,27,17,08,15.90
2019,03,27,17,09,15.90
2019,03,27,17,10,15.90
2019,03,27,17,11,15.90
2019,03,27,17,12,15.90
2019,03,27,17,13,15.90
2019,03,27,17,14,15.90
2019,03,27,17,15,15.90
2019,03,27,17,16,15.90
2019,03,27,17,17,15.80
2019,03,27,17,18,15.80
2019,03,27,17,19,15.80
2019,03,27,17,20,15.80
2019,03,27,17,21,15.80
2019,03,27,17,22,15.80
2019,03,27,17,23,15.80
2019,03,27,17,24,15.80
2019,03,27,17,25,15.80
2019,03,27,17,26,15.80
2019,03,27,17,27,15.80
2019,03,27,17,28,15.90
2019,03,27,17,29,15.90
2019,03,27,17,30,15.90
2019,03,27,17,31,16.00
2019,03,27,17,32,16.00
2019,03,27,17,33,16.00
2019,03,27,17,34,16.00
2019,03,27,17,35,15.90
2019,03,27,17,36,16.00
2019,03,27,17,37,16.00
2019,03,27,17,38,16.00
2019,03,27,17,39,15.90
2019,03,27,17,40,15.90
2019,03,27,17,41,15.90
2019,03,27,17,42,15.90
2019,03,27,17,43,16.00
2019,03,27,17,44,16.00
2019,03,27,17,45,16.00
2019,03,27,17,46,16.00
2019,03,27,17,47,16.10
2019,03,27,17,48,16.10